STARLINK-32847, 62811

Orbit data source: Space-Track

STARLINK-32847, 62811 is a payload satellite owned by SpaceX/Seattle (US) in LEO that was launched on Fri, 24 Jan 2025 UTC via an FALCON 9 launch vehicle from the Air Force Western Test Range (AFWTR). Payload-class satellites include a variety of spacecraft equipped with specific instruments for various scientific and technological missions. These include communications satellites like Starlink; space stations such as the ISS; scientific satellites like the Hubble; Earth observation satellites from companies like Planet Labs, Umbra, and HawkEye 360; GPS; miniature CubeSats for education and research; and military/defense satellites.

Loading next visibility...
Identifier
62811, 2025-018F
Orbit
LEO
Last TLE update
8 hours ago
Origin
Manufacturer
SpaceX/Seattle
Mission
Operational Commercial Communications
Bus & Motor
STARLINK V2M, Unknown motor
Mass
730 kg wet, ~700 kg dry
Launch date (UTC)
2025-01-24 (3 months ago)
Launch vehicle
FALCON 9
Launch site
Air Force Western Test Range (AFWTR)
Object type
Payload
Rocket body
Debris
Shape & HBR
Box + 2 Pan, 29 m
Radar Cross Section
33.884 m², Large (>1 m²)

Expand to show TLE details & history

TLE from 8 hours ago
0 STARLINK-32847
1 62811U 25018F   25128.88025875  .00000052  00000-0  11271-4 0  9998
2 62811  53.1611 286.6193 0000957  98.2259 261.8854 15.39614619 16486
Epoch: 2025-05-08T21:07Z
Definitive object data (Epoch: 2025-05-08T21:07:34.356Z)
Latitude
-0.00003°
Longitude
102.78172°
Altitude
448.244 km
Speed
7.644 km/s
True Right ascension
19h 06m 28s
True Declination
0° 00' 00"
Sunlit
Object was in full shadow at TLE epoch
Visualization TLE readout
Latitude
41.48557°
Longitude
142.41202°
Altitude
450.68 km
Speed
7.647 km/s
Apparent Right ascension
23h 28m 55s
Apparent Declination
2° 45' 08"
Sunlit
Object is in daylight
Visualization observer readout
Local Sidereal Time
13:18:00
Azimuth
37.034° NE
Elevation
-40.554°
Doppler factor
1
Orbital elements
Apogee altitude
448.159 km
Perigee altitude
446.852 km
Semi-major axis
6,825.642 km
Eccentricity
0.0000957
Inclination
53.1611°
RAAN
286.6193°
Arg. of periapsis
98.2259°
True anomaly
261.87454°
Mean anomaly
261.8854°
Eccentric anomaly
261.87997°
Mean motion
3.84882 °/min
BSTAR
0.000011271
Orbital period
93.54 mins
Loading maneuver chart data...
Loading SW <> Apogee altitude chart data...
Loading historical data...
Loading historical data...
Loading historical data...
Loading historical data...
Loading historical data...
Loading historical data...
Loading historical data...

STARLINK-32847 Visibility forecast

Observer location: undefined°, undefined°

Span
Click to sort rows by Start time (UTC) header in descending order
Start Az.
Max El. time (UTC)
Max El. Az.
Max El.
End time (UTC)
End Az.
6 mins2025-05-09 12:52:22.750Z209.976° SW2025-05-09 12:55:22.750Z127.795° SE37.808°2025-05-09 12:58:22.750Z60.298° ENE
4 mins2025-05-09 14:31:22.750Z299.536° NW2025-05-09 14:32:22.750Z323.04° NNW20.844°2025-05-09 14:35:22.750Z25.349° NE
4 mins2025-05-09 19:26:22.750Z342.46° N2025-05-09 19:27:22.750Z15.939° NNE33.094°2025-05-09 19:30:22.750Z102.927° ESE
4 mins2025-05-09 21:03:22.750Z263.099° W2025-05-09 21:04:22.750Z241.482° WSW19.037°2025-05-09 21:07:22.750Z181.57° SSW
|